Weather History for Wilmington, NC

Change the Weather History Date:

Wednesday, November 21, 2012

  Actual Average Record
Temperature  
Mean Temperature 54 °F 55 °F  
Max Temperature 62 °F 67 °F 80 °F (1942)
Min Temperature 45 °F 44 °F 23 °F (1951)
Degree Days  
Heating Degree Days 11 10  
Month to date heating degree days 267 167  
Since 1 July heating degree days 355 264  
Cooling Degree Days 0 1  
Month to date cooling degree days 0 21  
Year to date cooling degree days 2169 2035  
Growing Degree Days 4 (Base 50)    
Moisture  
Dew Point 43 °F    
Average Humidity 72    
Maximum Humidity 93    
Minimum Humidity 51    
Precipitation  
Precipitation 0.00 in 0.11 in 3.01 in (2005)
Month to date precipitation 4.33 2.24  
Year to date precipitation 45.76 52.94  
Snow  
Snow 0.00 in 0.00 in - ()
Month to date snowfall 0.0 0.0  
Since 1 July snowfall 0.0 0.0  
Since 1 September snowfall 0.0  
Snow Depth 0.00 in    
Sea Level Pressure  
Sea Level Pressure 30.08 in    
Wind  
Wind Speed 9 mph (North)    
Max Wind Speed 17 mph    
Max Gust Speed 23 mph    
Visibility 10 miles    
Events      
T = Trace of Precipitation, MM = Missing Value Source: NWS Daily Summary

Daily Weather History Graph

Daily Weather History Graph

Search for Another Location

Airport:

Trip Planner

Search our weather history database for the weather conditions in past years. The results will help you decide how hot, cold, wet, or windy it might be!

Date:

Astronomy

Nov. 21, 2012 Rise Set
Actual Time 6:50 AM EST 5:04 PM EST
Civil Twilight 6:23 AM EST 5:31 PM EST
Nautical Twilight 5:53 AM EST 6:01 PM EST
Astronomical Twilight 5:23 AM EST 6:31 PM EST
Moon 1:05 PM EST (11/21) 12:24 AM EST (11/21)
Length of Visible Light 11h 07m
Length of Day
10h 13m
First Quarter, 61% of the Moon is Illuminated
Nov 21
First Quarter
Nov 28
Full
Dec 6
Last Quarter
Dec 13
New
Dec 20
First Quarter

Hourly Weather History & Observations

Time (EST) Temp. Windchill Dew Point Humidity Pressure Visibility Wind Dir Wind Speed Gust Speed Precip Events Conditions
12:53 AM 52.0 °F - 48.0 °F 86% 30.06 in 10.0 mi NNE 5.8 mph - N/A   Overcast
1:53 AM 50.0 °F - 46.0 °F 86% 30.05 in 10.0 mi NNE 6.9 mph - N/A   Mostly Cloudy
2:53 AM 48.0 °F - 46.0 °F 93% 30.05 in 10.0 mi North 5.8 mph - N/A   Clear
3:53 AM 46.9 °F - 44.1 °F 90% 30.04 in 10.0 mi North 8.1 mph - N/A   Clear
4:53 AM 46.0 °F 42.5 °F 43.0 °F 89% 30.06 in 10.0 mi North 6.9 mph - N/A   Clear
5:53 AM 45.0 °F 41.8 °F 42.1 °F 90% 30.07 in 10.0 mi North 5.8 mph - N/A   Clear
6:53 AM 45.0 °F 41.8 °F 42.1 °F 90% 30.08 in 10.0 mi North 5.8 mph - N/A   Clear
7:53 AM 46.9 °F - 43.0 °F 86% 30.08 in 10.0 mi North 10.4 mph - N/A   Clear
8:53 AM 50.0 °F - 42.1 °F 74% 30.09 in 10.0 mi North 12.7 mph 19.6 mph N/A   Clear
9:53 AM 53.1 °F - 43.0 °F 69% 30.09 in 10.0 mi North 12.7 mph - N/A   Clear
10:53 AM 55.9 °F - 46.0 °F 69% 30.08 in 10.0 mi NNE 13.8 mph - N/A   Clear
11:53 AM 57.9 °F - 46.0 °F 65% 30.07 in 10.0 mi NNE 10.4 mph - N/A   Mostly Cloudy
12:53 PM 62.1 °F - 46.9 °F 58% 30.05 in 10.0 mi NNE 16.1 mph - N/A   Clear
1:53 PM 62.1 °F - 46.0 °F 56% 30.05 in 10.0 mi North 10.4 mph 16.1 mph N/A   Mostly Cloudy
2:53 PM 61.0 °F - 45.0 °F 56% 30.04 in 10.0 mi North 11.5 mph - N/A   Mostly Cloudy
3:53 PM 60.1 °F - 43.0 °F 53% 30.04 in 10.0 mi North 12.7 mph - N/A   Clear
4:53 PM 55.9 °F - 42.1 °F 60% 30.06 in 10.0 mi North 5.8 mph - N/A   Clear
5:53 PM 53.1 °F - 42.1 °F 66% 30.10 in 10.0 mi North 3.5 mph - N/A   Clear
6:53 PM 48.9 °F - 41.0 °F 74% 30.09 in 10.0 mi NNW 9.2 mph - N/A   Clear
7:53 PM 50.0 °F - 36.0 °F 59% 30.11 in 10.0 mi North 8.1 mph - N/A   Clear
8:53 PM 48.9 °F - 36.0 °F 61% 30.12 in 10.0 mi North 9.2 mph - N/A   Clear
9:53 PM 48.9 °F - 39.0 °F 69% 30.12 in 10.0 mi NNE 10.4 mph - N/A   Clear
10:53 PM 46.9 °F - 39.0 °F 74% 30.13 in 10.0 mi NNE 8.1 mph - N/A   Clear
11:53 PM 46.0 °F 41.4 °F 39.9 °F 79% 30.12 in 10.0 mi North 9.2 mph - N/A   Clear